Location: Arrington
(35.8681°N, 86.7092°W)
Time: 22:26:27
(UTC+00:00)

Cosmos 1782 - Pass Details

Date: 23 November 2019
Orbit: 536 x 553 km, 82.5° (Epoch: 06 December)

Event Time Altitude Azimuth Distance (km) Brightness Sun altitude
Rises 11:21:14 0° 357° (N) 2,703 6.2 -14.1°
Reaches altitude 10° 11:23:25 10° 0° (N) 1,805 5.3 -13.6°
Maximum altitude 11:27:20 62° 82° (E) 609 3.3 -12.9°
Drops below altitude 10° 11:31:14 10° 163° (SSE) 1,785 5.9 -12.1°
Sets 11:33:23 0° 167° (SSE) 2,671 6.8 -11.7°
